Weather History for Slidell, LA

Change the Weather History Date:

Wednesday, July 10, 2013

  Actual Average (KNEW) Record (KNEW)
Temperature  
Mean Temperature 82 °F 83 °F  
Max Temperature 91 °F 91 °F 97 °F (2000)
Min Temperature 75 °F 75 °F 63 °F (1972)
Degree Days  
Heating Degree Days 0 0  
Month to date heating degree days 0  
Since 1 June heating degree days 0  
Since 1 July heating degree days 0  
Cooling Degree Days 18 18  
Month to date cooling degree days 180  
Year to date cooling degree days 1294  
Since 1 June cooling degree days 675  
Growing Degree Days 32 (Base 50)    
Moisture  
Dew Point 76 °F    
Average Humidity 81    
Maximum Humidity 97    
Minimum Humidity 55    
Precipitation  
Precipitation 0.00 in 0.20 in 2.88 in (2010)
Month to date precipitation 2.15  
Year to date precipitation 34.45  
Snow  
Snow 0.00 in - - ()
Month to date snowfall  
Since 1 June snowfall  
Since 1 July snowfall  
Snow Depth -    
Sea Level Pressure  
Sea Level Pressure 30.05 in    
Wind  
Wind Speed 1 mph (WSW)    
Max Wind Speed 9 mph    
Max Gust Speed -    
Visibility 10 miles    
Events      
T = Trace of Precipitation, MM = Missing Value Source: NWS Daily Summary

Daily Weather History Graph

Daily Weather History Graph

Search for Another Location

Airport:

Trip Planner

Search our weather history database for the weather conditions in past years. The results will help you decide how hot, cold, wet, or windy it might be!

Date:

Astronomy

Jul. 10, 2013 Rise Set
Actual Time 6:05 AM CDT 8:04 PM CDT
Civil Twilight 5:37 AM CDT 8:31 PM CDT
Nautical Twilight 5:04 AM CDT 9:04 PM CDT
Astronomical Twilight 4:29 AM CDT 9:39 PM CDT
Moon 8:13 AM CDT (7/10) 9:28 PM CDT (7/10)
Length of Visible Light 14h 53m
Length of Day
13h 58m
Waxing Crescent, 5% of the Moon is Illuminated
Jul 10
Waxing Crescent
Jul 15
First Quarter
Jul 22
Full
Jul 29
Last Quarter
Aug 6
New

Hourly Weather History & Observations

Time (CDT) Temp. Heat Index Dew Point Humidity Pressure Visibility Wind Dir Wind Speed Gust Speed Precip Events Conditions
12:53 AM 81.0 °F 87.9 °F 77.0 °F 88% 30.09 in 10.0 mi Calm Calm - N/A   Clear
1:53 AM 77.0 °F - 75.9 °F 96% 30.09 in - Calm Calm - N/A   Clear
2:53 AM 75.9 °F - 75.0 °F 97% 30.09 in 10.0 mi Calm Calm - N/A   Clear
3:53 AM 75.9 °F - 75.0 °F 97% 30.09 in 10.0 mi Calm Calm - N/A   Clear
4:53 AM 75.0 °F - 73.9 °F 96% 30.10 in 10.0 mi Calm Calm - N/A   Clear
5:53 AM 75.0 °F - 73.9 °F 96% 30.10 in 10.0 mi Calm Calm - N/A   Clear
6:53 AM 75.9 °F - 75.0 °F 97% 30.10 in 10.0 mi Calm Calm - N/A   Clear
7:53 AM 80.1 °F 86.4 °F 78.1 °F 94% 30.11 in 10.0 mi Calm Calm - N/A   Clear
8:53 AM 82.9 °F 92.8 °F 78.1 °F 85% 30.11 in 10.0 mi Calm Calm - N/A   Partly Cloudy
9:53 AM 84.9 °F 94.1 °F 75.9 °F 74% 30.11 in 10.0 mi Variable 3.5 mph - N/A   Partly Cloudy
10:53 AM 86.0 °F 95.1 °F 75.0 °F 70% 30.11 in 10.0 mi West 3.5 mph - N/A   Partly Cloudy
11:53 AM 88.0 °F 97.5 °F 75.0 °F 65% 30.10 in 10.0 mi Variable 3.5 mph - N/A   Partly Cloudy
12:53 PM 89.1 °F 100.2 °F 75.9 °F 65% 30.07 in 10.0 mi Variable 4.6 mph - N/A   Scattered Clouds
1:53 PM 89.1 °F 100.2 °F 75.9 °F 65% 30.04 in 10.0 mi WNW 9.2 mph - N/A   Scattered Clouds
2:53 PM 90.0 °F 100.2 °F 75.0 °F 61% 30.02 in 10.0 mi WSW 8.1 mph - N/A   Partly Cloudy
3:53 PM 90.0 °F 96.9 °F 72.0 °F 55% 30.01 in 10.0 mi SW 8.1 mph - N/A   Clear
4:53 PM 90.0 °F 99.0 °F 73.9 °F 59% 30.01 in 10.0 mi Variable 6.9 mph - N/A   Clear
5:53 PM 87.1 °F 96.3 °F 75.0 °F 67% 29.99 in 10.0 mi Calm Calm - N/A   Clear
6:53 PM 84.9 °F 95.3 °F 77.0 °F 77% 29.98 in 10.0 mi Calm Calm - N/A   Clear
7:53 PM 82.9 °F 93.8 °F 79.0 °F 88% 29.99 in 10.0 mi Calm Calm - N/A   Clear
8:53 PM 82.9 °F 92.8 °F 78.1 °F 85% 29.98 in 10.0 mi Calm Calm - N/A   Clear
9:53 PM 80.1 °F 86.4 °F 78.1 °F 94% 29.99 in 10.0 mi Calm Calm - N/A   Clear
10:53 PM 79.0 °F - 77.0 °F 94% 30.00 in 10.0 mi Calm Calm - N/A   Clear
11:53 PM 81.0 °F 87.9 °F 77.0 °F 88% 29.98 in 10.0 mi South 3.5 mph - N/A   Clear